Location: *
(32.8667°N, 13.1833°E)
Time: 00:10:28
(UTC+00:00)

Cosmos 1151 Rocket - Pass Details

Date: 18 July 2019
Orbit: 593 x 616 km, 82.5° (Epoch: 21 August)

Event Time Altitude Azimuth Distance (km) Brightness Sun altitude
Rises 20:54:12 0° 341° (NNW) 2,889 7.6 -26.7°
Reaches altitude 10° 20:56:36 10° 331° (NNW) 1,979 6.6 -27.0°
Maximum altitude 21:00:28 31° 269° (W) 1,084 4.5 -27.5°
Enters shadow 21:00:49 30° 260° (W) 1,094 4.5 -27.5°
